Flag for Germany Weather past 2 weeks in Barsinghausen, Lower Saxony, Germany

Now
37 °F

Fog.


Feels Like: 30 °F
Forecast: 36 / 43 °F
Wind: 12 mph from West

Location: Wunstorf Airport

Current Time: Mar 5, 2015 at 8:16:44 AM

Latest Report: Mar 5, 2015 at 7:20 AM


Visibility: 3 mi

Pressure: 30.54 "Hg

Humidity: 93%

Dew point: 36 °F

Location of BarsinghausenLocation

Historic Weather in Barsinghausen — Graph

°F

Barsinghausen temperature yesterday

Maximum temperature yesterday: 41 °F (at 1:20 PM)
Minimum temperature yesterday: 34 °F (at 3:20 AM)
Average temperature yesterday: 38 °F

Past Weeks' High & Low Weather Summary

 TemperatureHumidityPressure
High50 °F (Mar 1, 1:20 PM)100% (Feb 18, 8:20 AM)30.74 "Hg (Feb 18, 8:20 AM)
Low28 °F (Feb 19, 5:20 AM)43% (Feb 28, 4:20 PM)29.30 "Hg (Feb 21, 7:20 AM)
Average39 °F79%29.87 "Hg
* Reported Feb 18 6:20 AM — Mar 5 6:20 AM, Barsinghausen, Weather by CustomWeather, © 2015

Note: Actual official high and low records may vary slightly from our data, if they occured in-between our weather recording intervals... More about our weather records

Advertising

Barsinghausen weather history for previous 24 hours

 ConditionsComfort  
Time TempWeatherWind HumidityBarometerVisibility
6:20 AM
Thu, Mar 5
37 °FPassing clouds.13 mph93%30.51 "HgN/A
5:20 AM36 °FPassing clouds.13 mph93%30.51 "HgN/A
4:20 AM37 °FChilly.10 mph87%30.48 "Hg4 mi
2:20 AM37 °FChilly.12 mph87%30.42 "Hg4 mi
1:20 AM39 °FChilly.15 mph81%30.39 "Hg5 mi
12:20 AM39 °FChilly.16 mph81%30.36 "Hg5 mi
11:20 PM
Wed, Mar 4
39 °FChilly.16 mph87%30.30 "Hg5 mi
10:20 PM39 °FChilly.15 mph87%30.27 "Hg5 mi
9:20 PM39 °FChilly.15 mph87%30.21 "Hg5 mi
8:20 PM39 °FChilly.14 mph87%30.21 "Hg2 mi
7:20 PM37 °FPartly cloudy.12 mph93%30.18 "HgN/A
6:20 PM37 °FPartly cloudy.17 mph93%30.18 "Hg5 mi
5:58 PM41 °FSprinkles. Broken clouds.15 mph76%30.18 "Hg2 mi
5:20 PM41 °FScattered clouds.13 mph76%30.15 "HgN/A
4:20 PM41 °FSprinkles. Partly sunny.21 mph76%30.15 "HgN/A
3:20 PM37 °FRain showers. Partly sunny.14 mph87%30.15 "Hg2 mi
2:20 PM41 °FSprinkles. Broken clouds.16 mph76%30.12 "HgN/A
1:20 PM41 °FBroken clouds.16 mph76%30.15 "HgN/A
12:20 PM39 °FBroken clouds.15 mph81%30.15 "HgN/A
11:20 AM39 °FBroken clouds.13 mph81%30.12 "HgN/A
10:20 AM39 °FBroken clouds.14 mph81%30.12 "HgN/A
9:20 AM37 °FScattered clouds.16 mph87%30.09 "Hg5 mi
8:20 AM36 °FBroken clouds.16 mph87%30.09 "HgN/A
Weather by CustomWeather, © 2015

See weather overviewHow to use our weather pages